TimeCDT,TemperatureF,Dew PointF,Humidity,Sea Level PressureIn,VisibilityMPH,Wind Direction,Wind SpeedMPH,Gust SpeedMPH,PrecipitationIn,Events,Conditions,WindDirDegrees,DateUTC
12:15 AM,30.2,21.2,69,30.36,10.0,NW,4.6,-,N/A,,Clear,320,2012-10-12 05:15:00
12:35 AM,28.4,21.2,74,30.37,10.0,NW,5.8,-,N/A,,Clear,320,2012-10-12 05:35:00
1:15 AM,28.4,21.2,74,30.38,10.0,WNW,4.6,-,N/A,,Clear,290,2012-10-12 06:15:00
1:35 AM,24.8,19.4,80,30.38,10.0,West,4.6,-,N/A,,Clear,270,2012-10-12 06:35:00
1:55 AM,23.0,17.6,80,30.38,10.0,West,3.5,-,N/A,,Clear,260,2012-10-12 06:55:00
2:15 AM,23.0,19.4,86,30.39,10.0,Calm,Calm,-,N/A,,Clear,0,2012-10-12 07:15:00
2:35 AM,24.8,19.4,80,30.39,10.0,Calm,Calm,-,N/A,,Clear,0,2012-10-12 07:35:00
3:15 AM,24.8,19.4,80,30.39,10.0,North,3.5,-,N/A,,Clear,350,2012-10-12 08:15:00
3:35 AM,23.0,19.4,86,30.39,10.0,Calm,Calm,-,N/A,,Clear,0,2012-10-12 08:35:00
3:55 AM,19.4,17.6,93,30.39,10.0,Calm,Calm,-,N/A,,Clear,0,2012-10-12 08:55:00
4:15 AM,19.4,17.6,93,30.40,10.0,Calm,Calm,-,N/A,,Clear,0,2012-10-12 09:15:00
4:35 AM,21.2,17.6,86,30.40,10.0,Calm,Calm,-,N/A,,Clear,0,2012-10-12 09:35:00
4:55 AM,21.2,17.6,86,30.41,10.0,Calm,Calm,-,N/A,,Clear,0,2012-10-12 09:55:00
5:15 AM,17.6,15.8,93,30.41,10.0,Calm,Calm,-,N/A,,Clear,0,2012-10-12 10:15:00
5:35 AM,21.2,17.6,86,30.41,10.0,Calm,Calm,-,N/A,,Clear,0,2012-10-12 10:35:00
5:55 AM,19.4,17.6,93,30.42,10.0,Calm,Calm,-,N/A,,Clear,0,2012-10-12 10:55:00
6:15 AM,19.4,15.8,86,30.42,10.0,Calm,Calm,-,N/A,,Clear,0,2012-10-12 11:15:00
6:35 AM,21.2,17.6,86,30.41,10.0,Calm,Calm,-,N/A,,Clear,0,2012-10-12 11:35:00
6:55 AM,21.2,17.6,86,30.41,10.0,Calm,Calm,-,N/A,,Clear,0,2012-10-12 11:55:00
7:15 AM,21.2,17.6,86,30.41,10.0,Calm,Calm,-,N/A,,Clear,0,2012-10-12 12:15:00
7:35 AM,21.2,17.6,86,30.41,10.0,Calm,Calm,-,N/A,,Clear,0,2012-10-12 12:35:00
7:55 AM,21.2,17.6,86,30.43,10.0,Calm,Calm,-,N/A,,Clear,0,2012-10-12 12:55:00
8:15 AM,23.0,19.4,86,30.42,10.0,Calm,Calm,-,N/A,,Clear,0,2012-10-12 13:15:00
8:35 AM,24.8,21.2,86,30.42,10.0,Calm,Calm,-,N/A,,Clear,0,2012-10-12 13:35:00
8:55 AM,28.4,24.8,86,30.42,10.0,Calm,Calm,-,N/A,,Clear,0,2012-10-12 13:55:00
9:15 AM,32.0,24.8,75,30.42,10.0,Calm,Calm,-,N/A,,Clear,0,2012-10-12 14:15:00
9:35 AM,33.8,24.8,70,30.42,10.0,East,3.5,-,N/A,,Clear,80,2012-10-12 14:35:00
9:55 AM,35.6,26.6,70,30.42,10.0,SE,3.5,-,N/A,,Clear,140,2012-10-12 14:55:00
10:15 AM,37.4,26.6,65,30.42,10.0,SSE,3.5,-,N/A,,Clear,150,2012-10-12 15:15:00
10:35 AM,37.4,23.0,56,30.41,10.0,South,6.9,-,N/A,,Clear,170,2012-10-12 15:35:00
11:15 AM,41.0,19.4,42,30.40,10.0,South,6.9,-,N/A,,Clear,180,2012-10-12 16:15:00
11:35 AM,41.0,19.4,42,30.40,10.0,SE,3.5,-,N/A,,Clear,140,2012-10-12 16:35:00
11:55 AM,41.0,19.4,42,30.39,10.0,SSE,9.2,-,N/A,,Clear,150,2012-10-12 16:55:00
12:15 PM,42.8,17.6,36,30.38,10.0,SSE,6.9,-,N/A,,Clear,150,2012-10-12 17:15:00
12:35 PM,42.8,19.4,39,30.37,10.0,South,4.6,-,N/A,,Clear,190,2012-10-12 17:35:00
12:55 PM,42.8,19.4,39,30.37,10.0,South,6.9,-,N/A,,Clear,180,2012-10-12 17:55:00
1:35 PM,44.6,17.6,34,30.34,10.0,South,12.7,17.3,N/A,,Clear,170,2012-10-12 18:35:00
1:55 PM,44.6,15.8,31,30.33,10.0,South,8.1,17.3,N/A,,Clear,180,2012-10-12 18:55:00
2:15 PM,44.6,15.8,31,30.33,10.0,SSW,9.2,-,N/A,,Clear,210,2012-10-12 19:15:00
2:35 PM,46.4,15.8,29,30.31,10.0,SSW,10.4,-,N/A,,Clear,210,2012-10-12 19:35:00
2:55 PM,46.4,15.8,29,30.30,10.0,SSE,8.1,-,N/A,,Clear,160,2012-10-12 19:55:00
3:15 PM,46.4,15.8,29,30.29,10.0,South,11.5,-,N/A,,Clear,170,2012-10-12 20:15:00
3:35 PM,46.4,14.0,27,30.28,10.0,South,11.5,-,N/A,,Clear,180,2012-10-12 20:35:00
3:55 PM,46.4,12.2,25,30.27,10.0,South,11.5,-,N/A,,Clear,180,2012-10-12 20:55:00
4:15 PM,46.4,14.0,27,30.27,10.0,South,12.7,-,N/A,,Clear,180,2012-10-12 21:15:00
4:35 PM,46.4,12.2,25,30.27,10.0,South,12.7,17.3,N/A,,Clear,190,2012-10-12 21:35:00
5:15 PM,46.4,12.2,25,30.25,10.0,South,13.8,17.3,N/A,,Clear,170,2012-10-12 22:15:00
5:55 PM,44.6,12.2,27,30.23,10.0,South,9.2,-,N/A,,Clear,190,2012-10-12 22:55:00
6:15 PM,42.8,12.2,29,30.22,10.0,South,9.2,-,N/A,,Clear,180,2012-10-12 23:15:00
6:35 PM,41.0,10.4,29,30.20,10.0,South,8.1,-,N/A,,Clear,170,2012-10-12 23:35:00
6:55 PM,37.4,10.4,33,30.20,10.0,South,6.9,-,N/A,,Clear,170,2012-10-12 23:55:00
7:15 PM,37.4,10.4,33,30.19,10.0,SSE,5.8,-,N/A,,Clear,160,2012-10-13 00:15:00
7:35 PM,37.4,12.2,36,30.18,10.0,SE,6.9,-,N/A,,Clear,140,2012-10-13 00:35:00
7:55 PM,37.4,14.0,38,30.16,10.0,SE,5.8,-,N/A,,Clear,140,2012-10-13 00:55:00
8:15 PM,37.4,14.0,38,30.16,10.0,SE,6.9,-,N/A,,Clear,140,2012-10-13 01:15:00
8:35 PM,37.4,14.0,38,30.14,10.0,SE,5.8,-,N/A,,Clear,130,2012-10-13 01:35:00
9:15 PM,37.4,15.8,41,30.13,10.0,SSE,6.9,-,N/A,,Clear,150,2012-10-13 02:15:00
9:35 PM,35.6,15.8,44,30.13,10.0,SE,5.8,-,N/A,,Clear,140,2012-10-13 02:35:00
9:55 PM,35.6,17.6,48,30.13,10.0,SSE,6.9,-,N/A,,Clear,150,2012-10-13 02:55:00
10:15 PM,37.4,19.4,48,30.12,10.0,SSE,6.9,-,N/A,,Mostly Cloudy,150,2012-10-13 03:15:00
10:35 PM,41.0,19.4,42,30.11,10.0,SSE,8.1,-,N/A,,Overcast,150,2012-10-13 03:35:00
10:55 PM,41.0,19.4,42,30.10,10.0,SSE,10.4,-,N/A,,Overcast,160,2012-10-13 03:55:00